ARIANE 3 DEB, 33536

Orbit data source: Space-Track

ARIANE 3 DEB, 33536 is space debris in HEO originally from a launch on Thu, 08 Sep 1988 UTC launched from the French Guiana (FRGUI). Debris objects in space refer to the collection of defunct objects orbiting the Earth. Examples of debris include non-operational satellites, rocket bodies, and fragments generated from explosions, collisions, or faulty payload assembly.

Loading next visibility...
Identifier
33536, 1988-081L
Orbit
HEO
Country
Flag of FRFR
Related business
Manufacturer
Unknown
Mission
Spacecraft
Bus & Motor
Unknown
Mass
Unknown
Launch date (UTC)
1988-09-08 (37 years ago)
Launch vehicle
Unknown
Launch site
French Guiana (FRGUI)
Object type
Payload
Rocket body
Debris
Shape & HBR
Unknown shape, 1.1 m
Radar Cross Section
Small (<0.1 m²)

Expand to show TLE details & history
Last TLE update: 4 days ago

TLE from 4 days ago
0 ARIANE 3 DEB
1 33536U 88081L   25288.95183730 -.00000268  00000-0  00000-0 0  9993
2 33536   6.8917 352.4300 6927849   1.5009  81.2246  2.15551019168287
Epoch: 2025-10-15T22:50Z
TLE epoch observation values (Epoch: 2025-10-15T22:50:38.742Z)
Latitude
3.20218°
Longitude
137.37433°
Altitude
26,798.2 km
Speed
2.878 km/s
True Right ascension
09h 39m 01s
True Declination
3° 11' 53"
Sunlit
Object was in daylight at epoch
Visualization orbit readout
Latitude
Unknown
Longitude
Unknown
Altitude
Unknown
Speed
Unknown
Apparent Right ascension
Unknown
Apparent Declination
Unknown
Sunlit
N/A
Visualization observer readout
Local Sidereal Time
10:13:28
Azimuth
Unknown
Elevation
Unknown
Doppler factor
Unknown
Orbital elements
Apogee altitude
36,481.488 km
Perigee altitude
1,400.243 km
Semi-major axis
25,319.003 km
Eccentricity
0.69278
Inclination
6.8917°
RAAN
352.43°
Arg. of periapsis
1.5009°
True anomaly
150.56711°
Mean anomaly
81.2246°
Eccentric anomaly
116.68915°
Mean motion
0.53873 °/min
Orbital period
668.24 mins
BSTAR
0
Loading maneuver chart data...
Computing Atmospheric mass density...
Loading historical data...
Loading historical data...
Loading historical data...
Loading historical data...
Loading historical data...
Loading historical data...
Loading historical data...

Documentation

Showing up to 5 results
|